O3B MPOWER F2

Last updated on Wed Jun 24 2026 00:03:26 GMT+0000 (Coordinated Universal Time)

1 54756U 22174B 26173.70709251 -.00000022 00000+0 00000+0 0 9996 2 54756 0.0474 340.8904 0005854 106.5873 272.5877 5.00115052 65721
UTC large
Height (km)
Speed (km/s)
/
Latitude / Longitude
Inclination (degrees)
Orbital Period (minutes)
Azimuth
Elevation
Range (km)
Doppler Factor

Next 0 passes for location: London (51.5072 / 0.1276)

No passes found over London.
O3B MPOWER F2